TimeEDT,TemperatureF,Dew PointF,Humidity,Sea Level PressureIn,VisibilityMPH,Wind Direction,Wind SpeedMPH,Gust SpeedMPH,PrecipitationIn,Events,Conditions,WindDirDegrees,DateUTC
12:52 AM,34.0,12.0,40,30.20,10.0,West,10.4,-,N/A,,Clear,270,2013-04-04 04:52:00
1:52 AM,33.1,12.9,43,30.20,10.0,WNW,5.8,-,N/A,,Clear,290,2013-04-04 05:52:00
2:52 AM,32.0,12.9,45,30.20,10.0,West,6.9,-,N/A,,Clear,280,2013-04-04 06:52:00
3:52 AM,30.9,12.9,47,30.20,10.0,WNW,6.9,-,N/A,,Clear,300,2013-04-04 07:52:00
4:52 AM,30.9,12.9,47,30.20,10.0,NW,3.5,-,N/A,,Clear,310,2013-04-04 08:52:00
5:52 AM,30.0,14.0,51,30.24,10.0,West,4.6,-,N/A,,Clear,270,2013-04-04 09:52:00
6:52 AM,30.9,15.1,52,30.29,10.0,West,6.9,-,N/A,,Clear,260,2013-04-04 10:52:00
7:52 AM,34.0,15.1,46,30.30,10.0,West,4.6,-,N/A,,Clear,280,2013-04-04 11:52:00
8:52 AM,37.9,15.1,39,30.31,10.0,WNW,5.8,-,N/A,,Clear,290,2013-04-04 12:52:00
9:52 AM,41.0,12.9,32,30.30,10.0,Variable,6.9,-,N/A,,Clear,0,2013-04-04 13:52:00
10:52 AM,45.0,12.0,26,30.28,10.0,Variable,4.6,-,N/A,,Clear,0,2013-04-04 14:52:00
11:52 AM,46.9,12.0,24,30.25,10.0,Calm,Calm,-,N/A,,Clear,0,2013-04-04 15:52:00
12:52 PM,51.1,14.0,23,30.23,10.0,West,10.4,-,N/A,,Clear,260,2013-04-04 16:52:00
1:52 PM,51.1,14.0,23,30.22,10.0,SSW,9.2,20.7,N/A,,Clear,200,2013-04-04 17:52:00
2:52 PM,51.1,19.0,28,30.19,10.0,SW,13.8,19.6,N/A,,Clear,220,2013-04-04 18:52:00
3:52 PM,52.0,23.0,32,30.15,10.0,SSW,13.8,19.6,N/A,,Clear,200,2013-04-04 19:52:00
4:52 PM,51.1,19.9,29,30.13,10.0,SSW,13.8,18.4,N/A,,Clear,210,2013-04-04 20:52:00
5:52 PM,48.0,21.9,36,30.12,10.0,South,9.2,20.7,N/A,,Clear,190,2013-04-04 21:52:00
6:52 PM,44.1,25.0,47,30.12,10.0,SSW,13.8,20.7,N/A,,Clear,210,2013-04-04 22:52:00
7:52 PM,41.0,23.0,49,30.14,10.0,SW,11.5,19.6,N/A,,Clear,220,2013-04-04 23:52:00
8:52 PM,39.9,27.0,60,30.15,10.0,SSW,9.2,20.7,N/A,,Clear,200,2013-04-05 00:52:00
9:52 PM,39.9,28.9,65,30.13,10.0,SSW,10.4,17.3,N/A,,Clear,200,2013-04-05 01:52:00
10:52 PM,39.9,30.0,68,30.11,10.0,SSW,8.1,-,N/A,,Clear,210,2013-04-05 02:52:00
11:52 PM,39.9,30.9,70,30.09,10.0,SSW,10.4,-,N/A,,Clear,210,2013-04-05 03:52:00